Brier Island, Nova Scotia

10:40 AM ADT on April 23, 2017 (GMT -0300)
Brier Island

Weather History for CWVU - February, 2012

Change the Weather History Date:

Friday, February 10, 2012

  Actual Average Record
Temperature  
Mean Temperature 36 °F -  
Max Temperature 42 °F - - ()
Min Temperature 31 °F - - ()
Degree Days  
Heating Degree Days 28    
Moisture  
Dew Point 30 °F    
Average Humidity 73    
Maximum Humidity 93    
Minimum Humidity 57    
Precipitation  
Precipitation 0.00 in - - ()
Sea Level Pressure  
Sea Level Pressure 30.07 in    
Wind  
Wind Speed 11 mph ()    
Max Wind Speed 17 mph    
Max Gust Speed 25 mph    
T = Trace of Precipitation, MM = Missing Value Source: Averaged Metar Reports

Daily Weather History Graph

Daily Weather History Graph

Search for Another Location

Airport or City:

Trip Planner

Search our weather history database for the weather conditions in past years. The results will help you decide how hot, cold, wet, or windy it might be!

Date:

Astronomy

Feb. 10, 2012 Rise Set
Actual Time 7:32 AM AST 5:46 PM AST
Civil Twilight 7:02 AM AST 6:17 PM AST
Nautical Twilight 6:28 AM AST 6:51 PM AST
Astronomical Twilight 5:54 AM AST 7:25 PM AST
Moon 9:31 PM AST (2/10) 8:30 AM AST (2/10)
Length of Visible Light 11h 14m
Length of Day
10h 14m
Waning Gibbous, 90% of the Moon is Illuminated
Feb 10
Waning Gibbous
Feb 14
Last Quarter
Feb 21
New
Feb 29
First Quarter
Mar 8
Full

Hourly Weather History & Observations

Time (AST) Temp. Windchill Dew Point Humidity Pressure Visibility Wind Dir Wind Speed Gust Speed Precip Events Conditions
12:00 AM 36.1 °F 26.2 °F 26.1 °F 67% 30.03 in - NNW 17.3 mph - N/A   Unknown
1:00 AM 35.4 °F 26.8 °F 26.2 °F 69% 30.04 in - NNW 12.7 mph - N/A   Unknown
2:00 AM 35 °F - 25 °F 57% 30.06 in - NW 15.0 mph - -  
2:00 AM 35.2 °F 25.8 °F 25.3 °F 67% 30.06 in - NW 15.0 mph - N/A   Unknown
3:00 AM 34.9 °F 25.7 °F 24.3 °F 65% 30.08 in - NW 13.8 mph - N/A   Unknown
4:00 AM 34.7 °F 25.9 °F 24.3 °F 66% 30.09 in - NW 12.7 mph - N/A   Unknown
5:00 AM 34.3 °F 27.0 °F 25.2 °F 69% 30.09 in - NW 9.2 mph - N/A   Unknown
6:00 AM 33.4 °F 28.1 °F 23.5 °F 67% 30.11 in - NW 5.8 mph - N/A   Unknown
7:00 AM 33.1 °F 30.0 °F 23.4 °F 67% 30.11 in - NNW 3.5 mph - N/A   Unknown
8:00 AM 33 °F - 25 °F 62% 30.13 in - SSE 3.5 mph - -  
8:00 AM 33.1 °F 30.0 °F 25.0 °F 72% 30.13 in - SSE 3.5 mph - N/A   Unknown
9:00 AM 37.0 °F 33.3 °F 27.0 °F 67% 30.15 in - SSE 4.6 mph - N/A   Unknown
10:00 AM 39.2 °F 32.0 °F 28.9 °F 67% 30.16 in - SSE 11.5 mph - N/A   Unknown
11:00 AM 39.9 °F 32.1 °F 28.4 °F 63% 30.15 in - SSE 13.8 mph - N/A   Unknown
12:00 PM 41.4 °F 34.0 °F 30.2 °F 65% 30.13 in - SSE 13.8 mph 20.7 mph N/A   Unknown
1:00 PM 41.9 °F 33.7 °F 31.8 °F 67% 30.10 in - SSE 17.3 mph 24.2 mph N/A   Unknown
2:00 PM 42 °F - 33 °F 60% 30.07 in - South 16.1 mph - -  
2:00 PM 42.1 °F 34.2 °F 31.3 °F 66% 30.07 in - South 16.1 mph 24.2 mph N/A   Unknown
3:00 PM 41.9 °F 34.3 °F 34.3 °F 75% 30.06 in - South 15.0 mph 21.9 mph N/A   Unknown
4:00 PM 41.7 °F 33.7 °F 35.4 °F 78% 30.06 in - South 16.1 mph 25.3 mph N/A   Unknown
5:00 PM 41.0 °F 33.5 °F 36.5 °F 84% 30.05 in - South 13.8 mph 19.6 mph N/A   Unknown
6:00 PM 38.5 °F 31.6 °F 36.3 °F 92% 30.04 in - South 10.4 mph - N/A   Unknown
7:00 PM 38.1 °F 32.3 °F 34.9 °F 88% 30.04 in - South 8.1 mph - N/A   Unknown
8:00 PM 38 °F - 36 °F 88% 30.03 in - South 8.1 mph - -  
8:00 PM 38.5 °F 32.7 °F 35.8 °F 90% 30.03 in - South 8.1 mph - N/A   Unknown
9:00 PM 38.1 °F 30.2 °F 36.3 °F 93% 30.01 in - SSE 12.7 mph - N/A   Unknown
10:00 PM 38.1 °F 29.8 °F 36.0 °F 92% 30.00 in - SSE 13.8 mph - N/A   Unknown
11:00 PM 38.8 °F 31.6 °F 36.9 °F 93% 29.98 in - South 11.5 mph - N/A   Unknown